Home > Weather > Kerpen > Past weeks

Flag for Germany Weather for the Past 2 Weeks in Kerpen, North Rhine-Westphalia, Germany

Now
61 °F

Refreshingly cool.


Feels Like: 61 °F
Forecast: 50 / 74 °F
Wind: 2 mph from East

Location: Noervenich

Current Time: May 5, 2016 at 10:32:41 PM

Latest Report: May 5, 2016 at 9:20 PM


Visibility: N/A

Pressure: 30.09 "Hg

Humidity: 48%

Dew Point: 41 °F

Location of KerpenLocation

Historic Weather in Kerpen — Graph

°F

Kerpen Temperature Yesterday

Maximum temperature yesterday: 59 °F (at 3:20 PM)
Minimum temperature yesterday: 37 °F (at 6:20 AM)
Average temperature yesterday: 49 °F

High & Low Weather Summary for the Past Weeks

 TemperatureHumidityPressure
High68 °F (Apr 21, 4:20 PM)100% (Apr 30, 5:20 AM)30.42 "Hg (Apr 30, 5:20 AM)
Low34 °F (Apr 21, 6:20 AM)26% (Apr 21, 4:20 PM)29.53 "Hg (Apr 26, 10:20 AM)
Average47 °F70%30.03 "Hg
* Reported Apr 20 9:20 PM — May 5 9:20 PM, Kerpen, Weather by CustomWeather, © 2016

Note: Actual official high and low records may vary slightly from our data, if they occured in-between our weather recording intervals... More about our weather records

Advertising

Kerpen Weather History for the Previous 24 Hours

Scroll right to see more
 ConditionsComfort  
Time TempWeatherWind HumidityBarometerVisibility
9:20 PM
Thu, May 5
61 °FRefreshingly cool.2 mph48%30.09 "HgN/A
8:20 PM64 °FMild.5 mph43%30.09 "HgN/A
7:20 PM66 °FMild.6 mph40%30.09 "HgN/A
6:20 PM66 °FMild.8 mph37%30.09 "HgN/A
5:20 PM66 °FMild.9 mph40%30.12 "HgN/A
4:20 PM66 °FMild.8 mph37%30.15 "HgN/A
3:20 PM66 °FMild.7 mph37%30.18 "HgN/A
2:20 PM64 °FPartly sunny.6 mph40%30.21 "HgN/A
1:20 PM63 °FPartly sunny.8 mph39%30.21 "HgN/A
12:20 PM61 °FPartly sunny.9 mph36%30.24 "HgN/A
11:20 AM59 °FPartly sunny.8 mph39%30.27 "HgN/A
10:20 AM57 °FPartly sunny.7 mph44%30.27 "HgN/A
8:20 AM46 °FScattered clouds.3 mph71%30.30 "HgN/A
7:20 AM43 °FPartly sunny.1 mph71%30.30 "HgN/A
6:20 AM37 °FPassing clouds.2 mph87%30.33 "HgN/A
5:20 AM37 °FPassing clouds.1 mph87%30.33 "HgN/A
4:20 AM39 °FPassing clouds.2 mph81%30.33 "HgN/A
3:20 AM39 °FPassing clouds.2 mph81%30.33 "HgN/A
2:20 AM41 °FPassing clouds.2 mph76%30.33 "HgN/A
1:20 AM43 °FPassing clouds.2 mph71%30.33 "HgN/A
12:20 AM45 °FPassing clouds.2 mph66%30.33 "HgN/A
11:20 PM
Wed, May 4
46 °FPassing clouds.No wind62%30.33 "HgN/A
10:20 PM48 °FPassing clouds.No wind58%30.33 "HgN/A
Weather by CustomWeather, © 2016

See weather overviewHow to use our weather pages